Weather History for KT82 - March, 2013

Change the Weather History Date:

Friday, March 15, 2013

  Actual Average (KSAT) Record (KSAT)
Temperature  
Mean Temperature 64 °F 62 °F  
Max Temperature 77 °F 73 °F 91 °F (1908)
Min Temperature 52 °F 51 °F 31 °F (1988)
Degree Days  
Heating Degree Days 0 5  
Month to date heating degree days 94  
Since 1 July heating degree days 1395  
Cooling Degree Days 0 2  
Month to date cooling degree days 25  
Year to date cooling degree days 51  
Growing Degree Days 14 (Base 50)    
Moisture  
Dew Point 48 °F    
Average Humidity 59    
Maximum Humidity 93    
Minimum Humidity 34    
Precipitation  
Precipitation 0.00 in 0.07 in 2.35 in (1994)
Month to date precipitation 1.13  
Year to date precipitation 4.68  
Snow  
Snow 0.00 in - - ()
Month to date snowfall  
Since 1 July snowfall  
Snow Depth -    
Sea Level Pressure  
Sea Level Pressure 30.12 in    
Wind  
Wind Speed 10 mph (SSW)    
Max Wind Speed 18 mph    
Max Gust Speed 25 mph    
Visibility 10 miles    
Events      
T = Trace of Precipitation, MM = Missing Value Source: NWS Daily Summary

Daily Weather History Graph

Daily Weather History Graph

Search for Another Location

Airport or City:

Trip Planner

Search our weather history database for the weather conditions in past years. The results will help you decide how hot, cold, wet, or windy it might be!

Date:

Astronomy

Mar. 15, 2013 Rise Set
Actual Time 7:45 AM CDT 7:44 PM CDT
Civil Twilight 7:21 AM CDT 8:08 PM CDT
Nautical Twilight 6:53 AM CDT 8:35 PM CDT
Astronomical Twilight 6:25 AM CDT 9:03 PM CDT
Moon 9:55 AM CDT (3/15) 11:39 PM CDT (3/15)
Length of Visible Light 12h 46m
Length of Day
11h 58m
Waxing Crescent, 15% of the Moon is Illuminated
Mar 15
Waxing Crescent
Mar 19
First Quarter
Mar 27
Full
Apr 2
Last Quarter
Apr 10
New

Hourly Weather History & Observations

Time (CDT) Temp. Dew Point Humidity Pressure Visibility Wind Dir Wind Speed Gust Speed Precip Events Conditions
12:15 AM 59.5 °F 48.6 °F 67% 30.24 in 10.0 mi South 6.9 mph - N/A   Clear
12:35 AM 58.5 °F 48.6 °F 70% 30.24 in 10.0 mi South 9.2 mph - N/A   Clear
1:15 AM 57.9 °F 48.4 °F 71% 30.23 in 10.0 mi South 8.1 mph - N/A   Clear
1:35 AM 56.7 °F 48.0 °F 73% 30.24 in 10.0 mi South 5.8 mph - N/A   Clear
1:55 AM 56.5 °F 48.2 °F 74% 30.23 in 10.0 mi South 5.8 mph - N/A   Clear
2:15 AM 54.7 °F 47.8 °F 78% 30.23 in 10.0 mi South 6.9 mph - N/A   Clear
2:55 AM 52.9 °F 47.1 °F 81% 30.22 in 10.0 mi SW 3.5 mph - N/A   Clear
3:15 AM 52.7 °F 47.7 °F 83% 30.22 in 10.0 mi Calm Calm - N/A   Clear
3:55 AM 53.1 °F 48.7 °F 85% 30.21 in 10.0 mi SW 4.6 mph - N/A   Clear
4:15 AM 52.3 °F 48.9 °F 88% 30.21 in 10.0 mi SW 5.8 mph - N/A   Scattered Clouds
4:35 AM 54.7 °F 51.8 °F 90% 30.20 in 10.0 mi SW 10.4 mph - N/A   Mostly Cloudy
4:55 AM 55.6 °F 52.2 °F 88% 30.20 in 10.0 mi SSW 13.8 mph 19.6 mph N/A   Overcast
5:15 AM 55.6 °F 52.0 °F 88% 30.20 in 10.0 mi SSW 11.5 mph 20.7 mph N/A   Overcast
5:35 AM 55.6 °F 51.8 °F 87% 30.19 in 10.0 mi SW 12.7 mph 16.1 mph N/A   Overcast
5:55 AM 55.6 °F 51.8 °F 87% 30.19 in 10.0 mi SW 10.4 mph - N/A   Overcast
6:15 AM 54.3 °F 51.1 °F 89% 30.18 in 10.0 mi SW 6.9 mph - N/A   Mostly Cloudy
6:35 AM 53.4 °F 50.5 °F 90% 30.19 in 10.0 mi SSW 3.5 mph - N/A   Scattered Clouds
6:55 AM 52.2 °F 50.2 °F 93% 30.20 in 10.0 mi SSW 5.8 mph - N/A   Scattered Clouds
7:15 AM 52.7 °F 50.7 °F 93% 30.20 in 10.0 mi SW 6.9 mph - N/A   Mostly Cloudy
7:55 AM 53.8 °F 50.9 °F 90% 30.20 in 10.0 mi SSW 10.4 mph - N/A   Mostly Cloudy
8:15 AM 54.7 °F 51.6 °F 89% 30.20 in 10.0 mi SSW 10.4 mph - N/A   Overcast
8:35 AM 55.9 °F 52.0 °F 87% 30.20 in 10.0 mi SSW 9.2 mph - N/A   Overcast
8:55 AM 56.8 °F 52.2 °F 84% 30.20 in 10.0 mi SSW 11.5 mph - N/A   Overcast
9:15 AM 57.7 °F 51.8 °F 81% 30.20 in 10.0 mi SSW 15.0 mph 19.6 mph N/A   Mostly Cloudy
9:35 AM 59.0 °F 51.8 °F 77% 30.21 in 10.0 mi South 11.5 mph 23.0 mph N/A   Scattered Clouds
10:55 AM 62.8 °F 52.0 °F 68% 30.20 in 10.0 mi SSW 12.7 mph - N/A   Clear
11:15 AM 64.0 °F 52.2 °F 65% 30.20 in 10.0 mi SW 12.7 mph - N/A   Clear
11:35 AM 65.1 °F 50.2 °F 58% 30.19 in 10.0 mi SW 11.5 mph - N/A   Clear
11:55 AM 66.6 °F 48.9 °F 53% 30.19 in 10.0 mi SSW 15.0 mph 20.7 mph N/A   Clear
12:15 PM 68.2 °F 48.6 °F 49% 30.18 in 10.0 mi SW 15.0 mph - N/A   Clear
12:35 PM 69.3 °F 49.5 °F 49% 30.17 in 10.0 mi SW 17.3 mph - N/A   Clear
12:55 PM 70.2 °F 50.2 °F 49% 30.16 in 10.0 mi South 15.0 mph - N/A   Clear
1:15 PM 71.6 °F 49.5 °F 45% 30.15 in 10.0 mi SSW 13.8 mph 19.6 mph N/A   Clear
1:35 PM 72.0 °F 49.1 °F 44% 30.14 in 10.0 mi SSW 17.3 mph 25.3 mph N/A   Clear
1:55 PM 72.7 °F 48.6 °F 42% 30.12 in 10.0 mi SW 16.1 mph 23.0 mph N/A   Clear
2:15 PM 74.1 °F 47.1 °F 38% 30.11 in 10.0 mi SSW 18.4 mph 23.0 mph N/A   Clear
2:35 PM 74.1 °F 48.4 °F 40% 30.09 in 10.0 mi SW 17.3 mph - N/A   Clear
2:55 PM 74.5 °F 47.8 °F 39% 30.08 in 10.0 mi SSW 17.3 mph 23.0 mph N/A   Clear
3:15 PM 75.6 °F 48.0 °F 38% 30.07 in 10.0 mi South 13.8 mph 20.7 mph N/A   Clear
3:35 PM 75.9 °F 48.6 °F 38% 30.06 in 10.0 mi South 18.4 mph 23.0 mph N/A   Clear
3:55 PM 76.5 °F 48.0 °F 37% 30.05 in 10.0 mi SSW 13.8 mph - N/A   Clear
4:15 PM 76.6 °F 45.9 °F 34% 30.04 in 10.0 mi South 18.4 mph 23.0 mph N/A   Clear
4:35 PM 77.0 °F 46.9 °F 34% 30.03 in 10.0 mi SSW 15.0 mph - N/A   Clear
4:55 PM 76.6 °F 46.6 °F 34% 30.03 in 10.0 mi SSW 12.7 mph 25.3 mph N/A   Clear
5:15 PM 76.6 °F 46.0 °F 34% 30.02 in 10.0 mi South 16.1 mph 25.3 mph N/A   Clear
5:35 PM 76.5 °F 46.6 °F 35% 30.02 in 10.0 mi SSW 13.8 mph 21.9 mph N/A   Clear
5:55 PM 76.3 °F 46.2 °F 34% 30.02 in 10.0 mi SSW 16.1 mph 23.0 mph N/A   Clear
6:15 PM 75.9 °F 46.2 °F 35% 30.01 in 10.0 mi South 13.8 mph 18.4 mph N/A   Clear
6:35 PM 75.6 °F 46.0 °F 35% 30.01 in 10.0 mi SSW 16.1 mph 19.6 mph N/A   Clear
6:55 PM 74.5 °F 45.3 °F 35% 30.01 in 10.0 mi South 15.0 mph 21.9 mph N/A   Clear
7:15 PM 73.6 °F 44.6 °F 35% 30.01 in 10.0 mi South 11.5 mph 20.7 mph N/A   Clear
7:35 PM 72.1 °F 45.0 °F 38% 30.01 in 10.0 mi South 10.4 mph - N/A   Clear
7:55 PM 70.5 °F 45.0 °F 40% 30.01 in 10.0 mi South 8.1 mph - N/A   Clear
8:15 PM 69.1 °F 44.8 °F 42% 30.01 in 10.0 mi South 5.8 mph - N/A   Clear
8:35 PM 67.8 °F 43.9 °F 42% 30.01 in 10.0 mi South 6.9 mph - N/A   Clear
8:55 PM 67.1 °F 42.8 °F 41% 30.01 in 10.0 mi South 5.8 mph - N/A   Clear
9:15 PM 65.7 °F 42.8 °F 43% 30.01 in 10.0 mi South 4.6 mph - N/A   Clear
9:35 PM 64.6 °F 42.3 °F 44% 30.01 in 10.0 mi South 3.5 mph - N/A   Clear
9:55 PM 64.0 °F 41.9 °F 44% 30.01 in 10.0 mi South 3.5 mph - N/A   Clear
10:15 PM 63.5 °F 42.1 °F 46% 30.01 in 10.0 mi South 4.6 mph - N/A   Clear
10:35 PM 65.8 °F 43.2 °F 44% 30.02 in 10.0 mi South 11.5 mph 16.1 mph N/A   Clear
10:55 PM 64.4 °F 48.7 °F 57% 30.02 in 10.0 mi South 13.8 mph 19.6 mph N/A   Clear
11:15 PM 63.0 °F 50.0 °F 63% 30.02 in 10.0 mi South 6.9 mph - N/A   Clear
11:35 PM 61.9 °F 50.9 °F 67% 30.02 in 10.0 mi South 8.1 mph - N/A   Clear
11:55 PM 62.1 °F 51.8 °F 69% 30.01 in 10.0 mi South 6.9 mph - N/A   Clear